TimeMST,TemperatureF,Dew PointF,Humidity,Sea Level PressureIn,VisibilityMPH,Wind Direction,Wind SpeedMPH,Gust SpeedMPH,PrecipitationIn,Events,Conditions,WindDirDegrees,DateUTC
12:53 AM,10.9,8.1,88,30.29,10.0,ESE,3.5,-,N/A,,Clear,120,2013-01-09 07:53:00
1:53 AM,8.1,5.0,87,30.31,10.0,West,5.8,-,N/A,,Clear,270,2013-01-09 08:53:00
2:53 AM,10.9,8.1,88,30.27,10.0,South,4.6,-,N/A,,Clear,180,2013-01-09 09:53:00
3:53 AM,10.0,6.1,84,30.27,10.0,West,3.5,-,N/A,,Clear,260,2013-01-09 10:53:00
4:53 AM,9.0,6.1,88,30.29,10.0,Calm,Calm,-,N/A,,Clear,0,2013-01-09 11:53:00
5:53 AM,8.1,5.0,87,30.27,10.0,Calm,Calm,-,N/A,,Clear,0,2013-01-09 12:53:00
6:53 AM,10.0,6.1,84,30.28,10.0,Calm,Calm,-,N/A,,Clear,0,2013-01-09 13:53:00
7:53 AM,9.0,5.0,84,30.30,10.0,East,3.5,-,N/A,,Clear,90,2013-01-09 14:53:00
8:53 AM,10.9,7.0,84,30.32,10.0,SSW,5.8,-,N/A,,Clear,210,2013-01-09 15:53:00
9:53 AM,18.0,12.9,81,30.30,10.0,WSW,4.6,-,N/A,,Clear,240,2013-01-09 16:53:00
10:53 AM,24.1,16.0,71,30.25,10.0,SW,6.9,-,N/A,,Clear,230,2013-01-09 17:53:00
11:53 AM,27.0,19.0,72,30.20,10.0,Calm,Calm,-,N/A,,Clear,0,2013-01-09 18:53:00
12:53 PM,30.9,21.9,69,30.16,10.0,SSW,4.6,-,N/A,,Clear,200,2013-01-09 19:53:00
1:53 PM,39.9,26.1,58,30.11,10.0,South,16.1,-,N/A,,Clear,170,2013-01-09 20:53:00
2:53 PM,39.9,28.0,63,30.06,10.0,SSE,18.4,-,N/A,,Clear,160,2013-01-09 21:53:00
3:53 PM,41.0,28.0,60,30.05,10.0,SSE,18.4,-,N/A,,Clear,150,2013-01-09 22:53:00
4:53 PM,39.9,27.0,60,30.01,10.0,SSE,24.2,-,N/A,,Clear,150,2013-01-09 23:53:00
5:53 PM,37.9,27.0,65,30.02,10.0,SSE,18.4,-,N/A,,Clear,160,2013-01-10 00:53:00
6:53 PM,37.0,26.1,65,30.00,10.0,South,11.5,-,N/A,,Clear,170,2013-01-10 01:53:00
7:53 PM,39.0,25.0,57,29.98,10.0,SSE,23.0,-,N/A,,Clear,150,2013-01-10 02:53:00
8:53 PM,39.0,24.1,55,29.96,10.0,SSE,16.1,-,N/A,,Clear,150,2013-01-10 03:53:00
9:53 PM,37.0,24.1,59,29.92,10.0,SSE,23.0,-,N/A,,Clear,160,2013-01-10 04:53:00
10:53 PM,35.1,23.0,61,29.90,10.0,South,18.4,-,N/A,,Clear,170,2013-01-10 05:53:00
11:53 PM,35.1,21.9,59,29.87,10.0,South,15.0,-,N/A,,Clear,170,2013-01-10 06:53:00